Location: Newark
(21.1200°N, 73.4000°E)
Time: 01:40:51
(UTC+00:00)

SR - Pass Details

Date: 31 January 2020
Orbit: 575 x 881 km, 66.7° (Epoch: 21 February)

Event Time Altitude Azimuth Distance (km) Brightness Sun altitude
Rises 13:57:43 0° 173° (S) 3,284 ? -14.7°
Reaches altitude 10° 14:00:27 10° 160° (SSE) 2,402 ? -15.4°
Maximum altitude 14:04:58 25° 106° (ESE) 1,630 ? -16.4°
Enters shadow 14:05:44 25° 93° (E) 1,666 ? -16.6°
Drops below altitude 10° 14:09:39 10° 52° (NE) 2,513 - -17.5°
Sets 14:12:34 0° 40° (NE) 3,468 - -18.1°
